Aeroporto :
LOGIN :

Iscrizione | Disclaimer

   EN    FR    IT 

 










Sommario :    VFR   VFR Marginale   IFR   IFR Intensivo   IFR Molto Intensivo
Visibilità : 
Base nubi : 
>= 8 km
>= 3000ft
5 / 8 km
1000 / 3000 ft
1500m / 5 km
500 / 1000 ft
800 / 1500m
200 / 500 ft
< 800m
< 200 ft
Simboli :   Temporali  Nebbia  Neve Forte  Precipitazioni Forti  Vento > 20 kt
SIGMETs :   Varie  Temporali  Ghiacco  Turbolenza  Onda orograficha  Ceneri Vulcaniche






- Altitudine del aeroporto : 2001 ft
- Codice IATA : MAD


LEMD - Madrid

ULTIMO METAR :
  • 280100Z 18004KT CAVOK 20/10 Q1025 NOSIG

METARs OBSOLETI :
  • 280030Z VRB02KT CAVOK 19/10 Q1025 NOSIG
  • 280000Z 18004KT CAVOK 21/10 Q1025 NOSIG
  • 272330Z 19004KT 160V220 CAVOK 21/10 Q1026 NOSIG
  • 272300Z 17004KT 140V210 CAVOK 22/10 Q1026 NOSIG
  • 272230Z 16006KT CAVOK 22/09 Q1025 NOSIG

TAF TAF LEMD
Valido dal 28 a 00 ore il 29 a 06 ore UTC


272300Z 2800/2906 16007KT CAVOK TX30/2816Z TN14/2805Z
BECMG 2803/2804 03007KT
BECMG 2807/2808 10008KT



MetMap, La meteo Aeronautica in un colpo d'occhio ! - Copyright ORBIFLY Dicembre 2007 - Disclaimer

ORBIFLY MET'MAP TEAM :

Programmazione e sviluppo : Alexandra Zaïnal
Concezione : Baudouin d'Aumeries
Aiuto per la programmazione : Marc-Olivier Méhu
Supporto tecnico e logistico : Manuel Goepfert
Aiuto per la traduzione : Arnaldo La Scala

Contatto : metmap@orbifly.com




FONTI E CREDITI :

   NOAA